Location: Ash Swamp
(41.5170°N, 74.6157°W)
Time: 17:17:47
(UTC+00:00)

Cosmos 1980 Rocket - Pass Details

Date: 14 July 2020
Orbit: 828 x 851 km, 71.0° (Epoch: 05 August)

Event Time Altitude Azimuth Distance (km) Brightness Sun altitude
Rises 08:30:28 0° 328° (NNW) 3,425 5.5 -10.9°
Reaches altitude 10° 08:33:06 10° 320° (NW) 2,483 4.7 -10.6°
Maximum altitude 08:38:15 37° 255° (WSW) 1,305 2.8 -9.8°
Drops below altitude 10° 08:43:23 10° 190° (S) 2,458 4.2 -9.1°
Sets 08:45:58 0° 182° (S) 3,385 4.9 -8.7°
